• Processing (Info)

  • MPEC 2011-C35 : 2011 CA7

    The following Minor Planet Electronic Circular may be linked-to from your own Web pages, but must not otherwise be redistributed electronically.

    A form allowing access to any MPEC is at the bottom of this page.


    Read MPEC 2011-C34 Read MPEC 2011-C36


    M.P.E.C. 2011-C35                                Issued 2011 Feb. 7, 13:03 UT
    
         The Minor Planet Electronic Circulars contain information on unusual
             minor planets and routine data on comets.  They are published
       on behalf of Commission 20 of the International Astronomical Union by the
              Minor Planet Center, Smithsonian Astrophysical Observatory,
                              Cambridge, MA 02138, U.S.A.
    
                 Prepared using the Tamkin Foundation Computer Network
    
                                  MPC@CFA.HARVARD.EDU
           URL http://www.minorplanetcenter.org/iau/mpc.html  ISSN 1523-6714
    
                                       2011 CA7
    
    Observations:
         K11C07A* C2011 02 07.37440 09 43 35.68 +14 56 12.2          20.5 VrEC035G96
         K11C07A  C2011 02 07.38066 09 43 32.08 +14 56 06.3          20.7 VrEC035G96
         K11C07A  C2011 02 07.38692 09 43 28.30 +14 56 00.5          22.4 VrEC035G96
         K11C07A  C2011 02 07.39325 09 43 24.70 +14 55 54.5          20.4 VrEC035G96
         K11C07A  C2011 02 07.43132 09 43 02.71 +14 55 11.1          21.3 VrEC035G96
         K11C07A  C2011 02 07.43185 09 43 02.49 +14 55 10.9          22.3 VrEC035G96
         K11C07A  C2011 02 07.43238 09 43 02.10 +14 55 09.9          21.3 VrEC035G96
         K11C07A  C2011 02 07.43289 09 43 01.77 +14 55 09.6          21.0 VrEC035G96
         K11C07A  C2011 02 07.47962 09 42 35.93 +14 54 04.3          21.3 VrEC035G96
         K11C07A  C2011 02 07.48054 09 42 35.37 +14 54 02.9          21.2 VrEC035G96
         K11C07A  C2011 02 07.48101 09 42 35.16 +14 54 01.9          21.0 VrEC035G96
    
    Observer details:
    G96 Mt. Lemmon Survey.  Observer A. R. Gibbs.  Measurers J. D. Ahern,
        E. C. Beshore, A. Boattini, G. J. Garradd, A. R. Gibbs, A. D. Grauer,
        R. E. Hill, R. A. Kowalski, S. M. Larson, R. H. McNaught.  1.5-m reflector
        + CCD.
    
    Orbital elements:
    2011 CA7                                                 Earth MOID = 0.0003 AU
    Epoch 2011 Feb. 8.0 TT = JDT 2455600.5                  MPC
    M 292.23302              (2000.0)            P               Q
    n   0.94781318     Peri.  280.36075     -0.50683497     +0.86198933
    a   1.0264100      Node   319.18138     -0.78503348     -0.46614334
    e   0.2856152      Incl.    0.84402     -0.35614709     -0.19921042
    P   1.04           H   30.3           G   0.15           U   9
    Residuals in seconds of arc
    110207 G96  0.6+  0.1-    110207 G96  0.5+  0.2-    110207 G96  1.0+  0.0
    110207 G96  1.3+  0.3-    110207 G96  1.7+  0.3+    110207 G96  0.0   0.0
    110207 G96  0.6-  0.1-    110207 G96  0.5+  0.1-    110207 G96  0.6+  0.3-
    110207 G96  0.7+  0.1+    110207 G96  0.1-  0.3+
    
    Ephemeris:
    2011 CA7                 a,e,i = 1.03, 0.29, 1                   q = 0.7333
    Date    TT    R. A. (2000) Decl.     Delta      r     Elong.  Phase     V
    2011 02 06.0  09 48.70   +15 07.7    0.0200   1.006   172.2     7.6    22.4
    2011 02 06.1  09 48.47   +15 07.3    0.0195   1.005   172.4     7.5    22.3
    2011 02 06.2  09 48.22   +15 06.9    0.0190   1.005   172.5     7.3    22.2
    2011 02 06.3  09 47.95   +15 06.5    0.0185   1.004   172.7     7.2    22.2
    2011 02 06.4  09 47.68   +15 06.0    0.0179   1.004   172.9     7.0    22.1
    2011 02 06.5  09 47.38   +15 05.6    0.0174   1.003   173.0     6.9    22.0
    2011 02 06.6  09 47.07   +15 05.1    0.0169   1.003   173.2     6.7    22.0
    2011 02 06.7  09 46.73   +15 04.5    0.0164   1.002   173.4     6.5    21.9
    2011 02 06.8  09 46.37   +15 04.0    0.0159   1.002   173.6     6.3    21.8
    2011 02 06.9  09 45.99   +15 03.3    0.0154   1.001   173.7     6.2    21.7
    2011 02 07.0  09 45.59   +15 02.7    0.0148   1.001   173.9     6.0    21.6
    2011 02 07.1  09 45.15   +15 02.0    0.0143   1.000   174.1     5.8    21.5
    2011 02 07.2  09 44.68   +15 01.2    0.0138   1.000   174.4     5.6    21.4
    2011 02 07.3  09 44.17   +15 00.4    0.0133   0.999   174.6     5.4    21.4
    2011 02 07.4  09 43.63   +14 59.5    0.0128   0.999   174.8     5.1    21.3
    2011 02 07.5  09 43.03   +14 58.5    0.0122   0.998   175.0     4.9    21.2
    2011 02 07.6  09 42.39   +14 57.4    0.0117   0.998   175.3     4.6    21.0
    2011 02 07.7  09 41.68   +14 56.2    0.0112   0.997   175.6     4.4    20.9
    2011 02 07.8  09 40.91   +14 54.9    0.0107   0.997   175.8     4.1    20.8
    2011 02 07.9  09 40.05   +14 53.4    0.0102   0.996   176.1     3.8    20.7
    2011 02 08.0  09 39.11   +14 51.7    0.00965  0.996   176.5     3.5    20.6
    2011 02 08.1  09 38.06   +14 49.9    0.00913  0.995   176.8     3.2    20.4
    2011 02 08.2  09 36.88   +14 47.8    0.00861  0.995   177.2     2.8    20.3
    2011 02 08.3  09 35.56   +14 45.4    0.00810  0.994   177.6     2.4    20.1
    2011 02 08.4  09 34.05   +14 42.6    0.00758  0.994   178.1     1.9    19.9
    2011 02 08.5  09 32.32   +14 39.4    0.00706  0.993   178.5     1.4    19.7
    2011 02 08.6  09 30.33   +14 35.7    0.00655  0.993   179.1     0.9    19.5
    2011 02 08.7  09 27.99   +14 31.2    0.00603  0.992   179.5     0.5    19.3
    2011 02 08.8  09 25.22   +14 25.7    0.00551  0.992   179.2     0.8    19.1
    2011 02 08.9  09 21.88   +14 18.9    0.00500  0.992   178.4     1.6    19.0
    2011 02 09.0  09 17.78   +14 10.4    0.00449  0.991   177.3     2.7    18.8
    2011 02 09.1  09 12.63   +13 59.3    0.00397  0.990   176.0     4.0    18.6
    2011 02 09.2  09 05.97   +13 44.2    0.00346  0.990   174.2     5.7    18.4
    2011 02 09.3  08 57.04   +13 23.0    0.00295  0.989   171.9     8.0    18.2
    2011 02 09.4  08 44.47   +12 51.0    0.00245  0.989   168.8    11.2    17.9
    2011 02 09.5  08 25.61   +11 58.5    0.00196  0.988   164.0    16.0    17.6
    2011 02 09.6  07 54.70   +10 21.5    0.00149  0.988   156.1    23.8    17.3
    2011 02 09.7  06 57.96   +06 53.3    0.00106  0.987   141.6    38.4    16.9
    2011 02 09.8  05 06.66   -01 02.7    0.00077  0.987   112.6    67.3    17.1
    2011 02 09.9  02 27.66   -11 23.9    0.00078  0.986    71.8   108.2    18.8
    2011 02 10.0  00 35.92   -15 33.1    0.00109  0.986    44.2   135.8    21.8
    
    Timothy B. Spahr             (C) Copyright 2011 MPC           M.P.E.C. 2011-C35
    

    Read MPEC 2011-C34 Read MPEC 2011-C36


    MPEC number:

    Enter an MPEC number in one of the following forms:

    • 1997-B01 (the full form)
    • J97B01 (the packed version of the full form)
    • B01 (the abbreviated form)